Volver al catálogo

CZ-4 DEB

ActivoPO
NORAD 20891·DEBRIS·🇨🇳 China

Lanzado Sep 3, 1990 desde Taiyuan Satellite Launch Center

Loading…

Próximos Pases (próximas 24 horas)

TLE

ActualizadoSource: Space-Track

Época: Sep 13, 2026, 15:11 UTC

1 20891U 90081BB  26256.63266108  .00000143  00000-0  18977-3 0  9994
2 20891  98.9812 279.7304 0212635  29.3881  97.3618 13.66121817788138

Sigue CZ-4 DEB en tiempo real con AllMySat

Download on the App Store